When you browse on this site, cookies collect data to enhance your experience and personalize the content and advertising you see.
Visit our Privacy Policy to learn more. By continuing to use the site, you agree to this use of cookies and data.
  • In Hungary
  • List of Countries
  • For 7 days
  • Water Temperature
  • Weather Map
  • News
  • Weather Widgets
  • user-avatar
    Login

    Hourly Weather Zagorki

    Today, 24 September, Tuesday

    Time Temperature Precipitation Wind Pressure Humidity
    00:00 +10°C° 0 mm 3 mps 758 mmHg 84%
    01:00 +9°C° 0 mm 3 mps 758 mmHg 88%
    02:00 +9°C° 0 mm 3 mps 757 mmHg 88%
    03:00 +9°C° 0 mm 3 mps 757 mmHg 89%
    04:00 +8°C° 0 mm 3 mps 756 mmHg 90%
    05:00 +9°C° 0 mm 3 mps 756 mmHg 88%
    06:00 +9°C° 0 mm 3 mps 756 mmHg 86%
    07:00 +10°C° 0 mm 3 mps 756 mmHg 84%
    08:00 +11°C° 0 mm 3 mps 756 mmHg 78%
    09:00 +13°C° 0 mm 3 mps 756 mmHg 72%
    10:00 +16°C° 0 mm 3 mps 756 mmHg 66%
    11:00 +17°C° 0 mm 3 mps 756 mmHg 63%
    12:00 +19°C° 0 mm 3 mps 755 mmHg 60%
    13:00 +20°C° 0 mm 3 mps 755 mmHg 57%
    14:00 +20°C° 0 mm 3 mps 755 mmHg 58%
    15:00 +20°C° 0 mm 3 mps 754 mmHg 59%
    16:00 +19°C° 0 mm 3 mps 754 mmHg 60%
    17:00 +18°C° 0 mm 3 mps 753 mmHg 63%
    18:00 +17°C° 0 mm 3 mps 753 mmHg 66%
    19:00 +16°C° 0 mm 3 mps 753 mmHg 69%
    20:00 +16°C° 0.5 mm 3 mps 753 mmHg 74%
    21:00 +14°C° 0.5 mm 4 mps 753 mmHg 79%
    22:00 +14°C° 0.5 mm 4 mps 753 mmHg 85%
    23:00 +13°C° 0.5 mm 4 mps 752 mmHg 84%

    Tomorrow, 25 September, Wednesday

    Time Temperature Precipitation Wind Pressure Humidity
    00:00 +13°C° 0.5 mm 4 mps 752 mmHg 83%
    01:00 +13°C° 0.5 mm 4 mps 752 mmHg 82%
    02:00 +13°C° 0.1 mm 4 mps 752 mmHg 81%
    03:00 +13°C° 0.1 mm 3 mps 751 mmHg 81%
    04:00 +12°C° 0.1 mm 3 mps 751 mmHg 80%
    05:00 +12°C° 0.1 mm 3 mps 751 mmHg 80%
    06:00 +12°C° 0.1 mm 4 mps 750 mmHg 80%
    07:00 +12°C° 0.1 mm 4 mps 750 mmHg 79%
    08:00 +13°C° 0 mm 4 mps 750 mmHg 78%
    09:00 +13°C° 0 mm 3 mps 751 mmHg 76%
    10:00 +14°C° 0 mm 3 mps 751 mmHg 75%
    11:00 +14°C° 0 mm 3 mps 751 mmHg 75%
    12:00 +16°C° 0 mm 3 mps 750 mmHg 74%
    13:00 +15°C° 0 mm 4 mps 750 mmHg 74%
    14:00 +16°C° 0 mm 3 mps 750 mmHg 76%
    15:00 +16°C° 0 mm 3 mps 750 mmHg 78%
    16:00 +16°C° 0 mm 3 mps 750 mmHg 80%
    17:00 +14°C° 0 mm 3 mps 750 mmHg 81%
    18:00 +15°C° 0 mm 2 mps 750 mmHg 81%
    19:00 +14°C° 0 mm 2 mps 750 mmHg 82%
    20:00 +14°C° 0 mm 2 mps 750 mmHg 81%
    21:00 +14°C° 0 mm 2 mps 750 mmHg 81%
    22:00 +15°C° 0 mm 2 mps 751 mmHg 81%
    23:00 +14°C° 0 mm 2 mps 751 mmHg 82%

    Day after tomorrow, 26 September, Thursday

    Time Temperature Precipitation Wind Pressure Humidity
    00:00 +14°C° 0 mm 2 mps 751 mmHg 83%
    01:00 +14°C° 0 mm 2 mps 751 mmHg 84%
    02:00 +14°C° 0 mm 2 mps 751 mmHg 85%
    03:00 +14°C° 0 mm 2 mps 751 mmHg 87%
    04:00 +14°C° 0 mm 2 mps 751 mmHg 88%
    05:00 +14°C° 0 mm 2 mps 751 mmHg 89%
    06:00 +14°C° 0 mm 2 mps 752 mmHg 89%
    07:00 +14°C° 0 mm 2 mps 752 mmHg 90%
    08:00 +15°C° 0 mm 2 mps 752 mmHg 87%
    09:00 +16°C° 0 mm 2 mps 753 mmHg 84%
    10:00 +16°C° 0 mm 2 mps 753 mmHg 81%
    11:00 +17°C° 0.1 mm 2 mps 753 mmHg 78%
    12:00 +19°C° 0.1 mm 1 mps 754 mmHg 75%
    13:00 +20°C° 0.1 mm 1 mps 754 mmHg 72%
    14:00 +19°C° 0.3 mm 1 mps 754 mmHg 73%
    15:00 +19°C° 0.3 mm 1 mps 754 mmHg 75%
    16:00 +19°C° 0.3 mm 1 mps 754 mmHg 76%
    17:00 +18°C° 0.2 mm 1 mps 754 mmHg 80%
    18:00 +16°C° 0.2 mm 1 mps 754 mmHg 84%
    19:00 +16°C° 0.2 mm 2 mps 754 mmHg 88%
    20:00 +15°C° 0 mm 2 mps 754 mmHg 90%
    21:00 +15°C° 0 mm 2 mps 755 mmHg 91%
    22:00 +14°C° 0 mm 2 mps 755 mmHg 93%
    23:00 +14°C° 0 mm 2 mps 755 mmHg 94%

    27 September, Friday

    Time Temperature Precipitation Wind Pressure Humidity
    00:00 +13°C° 0 mm 2 mps 755 mmHg 94%
    01:00 +13°C° 0 mm 2 mps 754 mmHg 95%
    02:00 +12°C° 0 mm 3 mps 754 mmHg 95%
    03:00 +12°C° 0 mm 3 mps 754 mmHg 95%
    04:00 +12°C° 0 mm 3 mps 754 mmHg 95%
    05:00 +12°C° 0 mm 3 mps 754 mmHg 93%
    06:00 +12°C° 0 mm 3 mps 754 mmHg 91%
    07:00 +13°C° 0 mm 4 mps 753 mmHg 90%
    08:00 +14°C° 0 mm 4 mps 754 mmHg 84%
    09:00 +15°C° 0 mm 5 mps 754 mmHg 78%
    10:00 +17°C° 0 mm 5 mps 754 mmHg 73%
    11:00 +16°C° 0.4 mm 5 mps 753 mmHg 78%
    12:00 +16°C° 0.4 mm 5 mps 753 mmHg 83%
    13:00 +15°C° 0.4 mm 5 mps 753 mmHg 88%
    14:00 +15°C° 0.1 mm 4 mps 752 mmHg 89%
    15:00 +15°C° 0.1 mm 4 mps 752 mmHg 90%
    16:00 +15°C° 0.1 mm 4 mps 752 mmHg 91%
    17:00 +14°C° 0.7 mm 4 mps 751 mmHg 92%
    18:00 +14°C° 0.7 mm 4 mps 751 mmHg 93%
    19:00 +14°C° 0.7 mm 4 mps 751 mmHg 94%
    20:00 +14°C° 0.4 mm 4 mps 751 mmHg 94%
    21:00 +14°C° 0.4 mm 4 mps 751 mmHg 94%
    22:00 +15°C° 0.4 mm 4 mps 751 mmHg 94%
    23:00 +14°C° 0.1 mm 4 mps 751 mmHg 94%

    28 September, Saturday

    Time Temperature Precipitation Wind Pressure Humidity
    00:00 +14°C° 0.1 mm 4 mps 751 mmHg 93%
    01:00 +14°C° 0.1 mm 4 mps 751 mmHg 93%
    02:00 +13°C° 0 mm 4 mps 751 mmHg 94%
    03:00 +12°C° 0 mm 4 mps 751 mmHg 95%
    04:00 +12°C° 0 mm 4 mps 751 mmHg 96%
    05:00 +12°C° 0 mm 4 mps 751 mmHg 94%
    06:00 +12°C° 0 mm 4 mps 751 mmHg 93%
    07:00 +12°C° 0 mm 5 mps 751 mmHg 92%
    08:00 +13°C° 0 mm 5 mps 751 mmHg 87%
    09:00 +14°C° 0 mm 5 mps 751 mmHg 82%
    10:00 +15°C° 0 mm 5 mps 752 mmHg 77%
    11:00 +16°C° 0.2 mm 5 mps 751 mmHg 74%
    12:00 +16°C° 0.2 mm 5 mps 751 mmHg 72%
    13:00 +17°C° 0.2 mm 5 mps 751 mmHg 69%
    14:00 +16°C° 0.4 mm 5 mps 751 mmHg 71%
    15:00 +16°C° 0.4 mm 5 mps 750 mmHg 74%
    16:00 +17°C° 0.4 mm 4 mps 750 mmHg 76%
    17:00 +15°C° 0.5 mm 4 mps 750 mmHg 79%
    18:00 +14°C° 0.5 mm 5 mps 750 mmHg 82%
    19:00 +13°C° 0.5 mm 5 mps 750 mmHg 84%
    20:00 +13°C° 0.1 mm 5 mps 750 mmHg 86%
    21:00 +12°C° 0.1 mm 5 mps 750 mmHg 88%
    22:00 +12°C° 0.1 mm 5 mps 751 mmHg 89%
    23:00 +12°C° 0 mm 5 mps 750 mmHg 90%

    29 September, Sunday

    Time Temperature Precipitation Wind Pressure Humidity
    00:00 +10°C° 0 mm 5 mps 750 mmHg 91%
    01:00 +10°C° 0 mm 6 mps 750 mmHg 92%
    02:00 +10°C° 0.1 mm 6 mps 750 mmHg 92%
    03:00 +10°C° 0.1 mm 6 mps 750 mmHg 91%
    04:00 +10°C° 0.1 mm 6 mps 750 mmHg 91%
    05:00 +10°C° 0.1 mm 6 mps 750 mmHg 90%
    06:00 +11°C° 0.1 mm 6 mps 750 mmHg 89%
    07:00 +11°C° 0.1 mm 6 mps 750 mmHg 88%
    08:00 +11°C° 0.1 mm 6 mps 750 mmHg 86%
    09:00 +13°C° 0.1 mm 6 mps 750 mmHg 84%
    10:00 +13°C° 0.1 mm 6 mps 750 mmHg 81%
    11:00 +14°C° 0.1 mm 6 mps 750 mmHg 78%
    12:00 +14°C° 0.1 mm 6 mps 750 mmHg 74%
    13:00 +15°C° 0.1 mm 6 mps 750 mmHg 71%
    14:00 +14°C° 0.3 mm 6 mps 750 mmHg 75%
    15:00 +14°C° 0.3 mm 6 mps 749 mmHg 79%
    16:00 +13°C° 0.3 mm 6 mps 749 mmHg 83%
    17:00 +13°C° 0.7 mm 5 mps 749 mmHg 84%
    18:00 +12°C° 0.7 mm 5 mps 749 mmHg 86%
    19:00 +12°C° 0.7 mm 5 mps 748 mmHg 88%
    20:00 +12°C° 0.1 mm 5 mps 748 mmHg 88%
    21:00 +11°C° 0.1 mm 6 mps 748 mmHg 89%
    22:00 +11°C° 0.1 mm 6 mps 747 mmHg 89%
    23:00 +12°C° 0 mm 5 mps 747 mmHg 89%
    Show more